DW9210 Weather Reports


time (UTC)temp
C
wind
direction
speed
KPH
gust
KPH
rain 1hr
cm
rain 24hr
cm
rain mn
cm
humidity
%
barometer
mb
20260831141503 28 258 3.2 9.7 0.00 0.00 0.00 79 1018.3
20260831141003 27 255 3.2 8.0 0.00 0.00 0.00 80 1018.2
20260831140503 27 255 3.2 9.7 0.00 0.00 0.00 82 1018.3
20260831140003 27 243 3.2 9.7 0.00 0.00 0.00 82 1018.2
20260831135503 26 237 4.8 9.7 0.00 0.00 0.00 82 1018.3
20260831135003 26 234 4.8 9.7 0.00 0.00 0.00 83 1018.2
20260831134503 26 230 1.6 6.4 0.00 0.00 0.00 86 1018.2
20260831134003 25 211 1.6 6.4 0.00 0.00 0.00 88 1018.2
20260831133503 25 209 1.6 6.4 0.00 0.00 0.00 89 1018.2
20260831133003 24 215 1.6 6.4 0.00 0.00 0.00 91 1018.2
20260831132503 23 213 1.6 4.8 0.00 0.00 0.00 93 1018.2
20260831132003 23 214 1.6 4.8 0.00 0.00 0.00 94 1018.3
20260831131503 23 207 1.6 4.8 0.00 0.00 0.00 94 1018.3
20260831131003 22 203 1.6 4.8 0.00 0.00 0.00 95 1018.3
20260831130503 22 205 1.6 3.2 0.00 0.00 0.00 95 1018.2
20260831130024 22 203 1.6 4.8 0.00 0.00 0.00 96 1018.2
20260831125503 22 208 0.0 4.8 0.00 0.00 0.00 97 1018.2
20260831125003 22 215 0.0 3.2 0.00 0.00 0.00 97 1018.2
20260831124503 22 0 0.0 0.0 0.00 0.00 0.00 97 1018.1
20260831124003 21 0 0.0 0.0 0.00 0.00 0.00 97 1018.1
20260831123503 21 0 0.0 0.0 0.00 0.00 0.00 97 1018.1
20260831123003 21 0 0.0 0.0 0.00 0.00 0.00 97 1018.1
20260831122503 21 0 0.0 0.0 0.00 0.00 0.00 98 1018.2
20260831122003 21 0 0.0 0.0 0.00 0.00 0.00 97 1018.0
20260831121503 21 0 0.0 0.0 0.00 0.00 0.00 97 1018.0
20260831121003 21 0 0.0 0.0 0.00 0.00 0.00 97 1018.0
20260831120524 20 0 0.0 0.0 0.00 0.00 0.00 97 1017.9
20260831120003 20 0 0.0 0.0 0.00 0.00 0.00 97 1017.8
20260831115524 20 0 0.0 0.0 0.00 0.00 0.00 97 1017.7
20260831115003 20 0 0.0 0.0 0.00 0.00 0.00 97 1017.7
20260831114503 20 0 0.0 0.0 0.00 0.00 0.00 97 1017.7
20260831114003 20 0 0.0 0.0 0.00 0.00 0.00 97 1017.7
20260831113503 20 0 0.0 0.0 0.00 0.00 0.00 97 1017.7
20260831113003 20 0 0.0 0.0 0.00 0.00 0.00 97 1017.6
20260831112503 20 0 0.0 0.0 0.00 0.00 0.00 97 1017.5
20260831112003 20 0 0.0 0.0 0.00 0.00 0.00 97 1017.4
20260831111503 20 0 0.0 0.0 0.00 0.00 0.00 97 1017.4
20260831111003 20 0 0.0 0.0 0.00 0.00 0.00 97 1017.3
20260831110503 20 0 0.0 0.0 0.00 0.00 0.00 97 1017.3
20260831110024 20 0 0.0 0.0 0.00 0.00 0.00 97 1017.2
20260831105503 20 0 0.0 0.0 0.00 0.00 0.00 97 1017.1
20260831105024 20 0 0.0 0.0 0.00 0.00 0.00 97 1017.1
20260831104503 20 0 0.0 0.0 0.00 0.00 0.00 97 1017.1
20260831104003 20 0 0.0 0.0 0.00 0.00 0.00 97 1017.0
20260831103503 20 0 0.0 0.0 0.00 0.00 0.00 97 1017.0
20260831103003 20 0 0.0 0.0 0.00 0.00 0.00 97 1017.0
20260831102503 20 0 0.0 0.0 0.00 0.00 0.00 97 1016.9
20260831102003 20 0 0.0 0.0 0.00 0.00 0.00 97 1016.9
20260831101503 20 0 0.0 0.0 0.00 0.00 0.00 97 1016.8
20260831101003 20 0 0.0 0.0 0.00 0.00 0.00 96 1016.8
20260831100503 20 0 0.0 0.0 0.00 0.00 0.00 96 1016.7
20260831100003 20 0 0.0 0.0 0.00 0.00 0.00 96 1016.6
20260831095524 20 0 0.0 0.0 0.00 0.00 0.00 96 1016.6
20260831095024 20 0 0.0 0.0 0.00 0.00 0.00 96 1016.6
20260831094503 20 0 0.0 0.0 0.00 0.00 0.00 96 1016.4
20260831094003 20 0 0.0 0.0 0.00 0.00 0.00 96 1016.5
20260831093503 20 0 0.0 0.0 0.00 0.00 0.00 97 1016.6
20260831093003 20 0 0.0 0.0 0.00 0.00 0.00 97 1016.6
20260831092524 20 0 0.0 0.0 0.00 0.00 0.00 97 1016.6
20260831092003 20 0 0.0 0.0 0.00 0.00 0.00 97 1016.6
20260831091503 20 0 0.0 0.0 0.00 0.00 0.00 96 1016.7
20260831091003 20 0 0.0 0.0 0.00 0.00 0.00 96 1016.6
20260831090524 20 0 0.0 0.0 0.00 0.00 0.00 97 1016.6
20260831090003 20 0 0.0 0.0 0.00 0.00 0.00 97 1016.5
20260831085524 20 0 0.0 0.0 0.00 0.00 0.00 96 1016.5
20260831085003 19 0 0.0 0.0 0.00 0.00 0.00 96 1016.4
20260831084503 20 0 0.0 0.0 0.00 0.00 0.00 96 1016.4
20260831084003 20 0 0.0 0.0 0.00 0.00 0.00 96 1016.3
20260831083524 20 0 0.0 0.0 0.00 0.00 0.00 96 1016.3
20260831083003 20 0 0.0 0.0 0.00 0.00 0.00 96 1016.2
20260831082503 20 0 0.0 0.0 0.00 0.00 0.00 96 1016.3
20260831082003 20 0 0.0 0.0 0.00 0.00 0.00 96 1016.3
20260831081503 20 0 0.0 0.0 0.00 0.00 0.00 96 1016.3
20260831081003 20 0 0.0 0.0 0.00 0.00 0.00 96 1016.3
20260831080524 20 0 0.0 0.0 0.00 0.00 0.00 96 1016.3
20260831080003 20 0 0.0 0.0 0.00 0.00 0.00 96 1016.3
20260831075503 20 0 0.0 0.0 0.00 0.00 0.00 96 1016.4
20260831075003 20 0 0.0 0.0 0.00 0.00 0.00 96 1016.4
20260831074524 20 0 0.0 0.0 0.00 0.00 0.00 96 1016.4
20260831074003 20 0 0.0 0.0 0.00 0.00 0.00 96 1016.5
20260831073503 20 0 0.0 0.0 0.00 0.00 0.00 95 1016.5
20260831073003 20 0 0.0 0.0 0.00 0.00 0.00 96 1016.5
20260831072503 20 0 0.0 0.0 0.00 0.00 0.00 96 1016.5
20260831072003 20 0 0.0 0.0 0.00 0.00 0.00 96 1016.6
20260831071503 20 0 0.0 0.0 0.00 0.00 0.00 96 1016.6
20260831071003 20 0 0.0 0.0 0.00 0.00 0.00 96 1016.7
20260831070503 20 0 0.0 0.0 0.00 0.00 0.00 96 1016.7
20260831070003 20 0 0.0 0.0 0.00 0.00 0.00 95 1016.8
20260831065503 20 0 0.0 0.0 0.00 0.00 0.00 95 1016.8
20260831065003 20 0 0.0 0.0 0.00 0.00 0.00 95 1016.7
20260831064503 20 0 0.0 0.0 0.00 0.00 0.00 95 1016.6
20260831064003 20 0 0.0 0.0 0.00 0.00 0.00 95 1016.6
20260831063503 20 0 0.0 0.0 0.00 0.00 0.00 95 1016.7
20260831063003 20 0 0.0 0.0 0.00 0.00 0.00 95 1016.7
20260831062503 20 0 0.0 0.0 0.00 0.00 0.00 95 1016.7
20260831062003 20 0 0.0 0.0 0.00 0.00 0.00 95 1016.8
20260831061503 20 0 0.0 0.0 0.00 0.00 0.00 95 1016.8
20260831061003 20 0 0.0 0.0 0.00 0.00 0.00 95 1016.7
20260831060503 20 0 0.0 0.0 0.00 0.00 0.00 95 1016.8
20260831060003 20 0 0.0 0.0 0.00 0.00 0.00 95 1016.8
20260831055503 20 0 0.0 0.0 0.00 0.00 0.00 95 1016.8
20260831055003 20 0 0.0 0.0 0.00 0.00 0.00 95 1016.9
20260831054503 20 0 0.0 0.0 0.00 0.00 0.00 95 1016.9
20260831054003 20 0 0.0 0.0 0.00 0.00 0.00 95 1016.9
20260831053503 20 0 0.0 0.0 0.00 0.00 0.00 95 1016.9
20260831053003 20 0 0.0 0.0 0.00 0.00 0.00 95 1017.0
20260831052503 21 0 0.0 0.0 0.00 0.00 0.00 95 1017.0
20260831052003 21 0 0.0 0.0 0.00 0.00 0.00 95 1017.0
20260831051503 21 0 0.0 0.0 0.00 0.00 0.00 95 1017.0
20260831051003 21 0 0.0 0.0 0.00 0.00 0.00 95 1017.0
20260831050503 21 0 0.0 0.0 0.00 0.00 0.00 95 1017.0
20260831050024 21 0 0.0 0.0 0.00 0.00 0.00 95 1016.9
20260831045503 21 0 0.0 0.0 0.00 0.00 0.00 94 1016.9
20260831045003 21 0 0.0 0.0 0.00 0.00 0.00 95 1016.9
20260831044503 21 0 0.0 0.0 0.00 0.00 0.00 95 1016.8
20260831044024 21 0 0.0 0.0 0.00 0.00 0.00 95 1016.9
20260831043524 21 0 0.0 0.0 0.00 0.00 0.00 94 1016.9
20260831043003 21 0 0.0 0.0 0.00 0.00 0.00 94 1017.0
20260831042503 21 0 0.0 0.0 0.00 0.00 0.00 94 1016.9
20260831042003 21 0 0.0 0.0 0.00 0.00 0.00 94 1016.9
20260831041545 21 0 0.0 0.0 0.00 0.00 0.00 94 1016.9
20260831041003 21 0 0.0 0.0 0.00 0.00 0.00 94 1017.0
20260831040503 21 0 0.0 0.0 0.00 0.00 0.00 94 1017.0
20260831040003 21 0 0.0 0.0 0.00 0.00 0.00 94 1017.1
20260831035503 21 0 0.0 0.0 0.00 0.00 0.00 94 1017.0
20260831035003 21 0 0.0 0.0 0.00 0.00 0.00 93 1017.0
20260831034503 21 0 0.0 0.0 0.00 0.00 0.00 94 1017.1
20260831034024 21 0 0.0 0.0 0.00 0.00 0.00 94 1017.1
20260831033503 21 0 0.0 0.0 0.00 0.00 0.00 93 1017.1
20260831033003 21 0 0.0 0.0 0.00 0.00 0.00 93 1017.0
20260831032503 21 0 0.0 0.0 0.00 0.00 0.00 93 1017.1
20260831032003 21 0 0.0 0.0 0.00 0.00 0.00 93 1017.1
20260831031503 21 0 0.0 0.0 0.00 0.00 0.00 93 1017.1
20260831031003 21 0 0.0 0.0 0.00 0.00 0.00 93 1017.1
20260831030503 21 0 0.0 0.0 0.00 0.00 0.00 93 1017.1
20260831030003 21 0 0.0 0.0 0.00 0.00 0.00 93 1017.1
20260831025503 21 0 0.0 0.0 0.00 0.00 0.00 93 1017.0
20260831025003 22 0 0.0 0.0 0.00 0.00 0.00 93 1017.0
20260831024503 22 0 0.0 0.0 0.00 0.00 0.00 92 1017.0
20260831024003 22 0 0.0 0.0 0.00 0.00 0.00 92 1017.1
20260831023503 22 0 0.0 0.0 0.00 0.00 0.00 92 1017.0
20260831023003 22 0 0.0 0.0 0.00 0.00 0.00 92 1017.0
20260831022524 22 0 0.0 0.0 0.00 0.00 0.00 93 1016.9
20260831022003 22 0 0.0 0.0 0.00 0.00 0.00 92 1017.0
20260831021524 22 0 0.0 0.0 0.00 0.00 0.00 92 1017.1
20260831021003 22 0 0.0 0.0 0.00 0.00 0.00 91 1017.1
20260831020503 22 0 0.0 0.0 0.00 0.00 0.00 92 1017.1
20260831020003 22 0 0.0 0.0 0.00 0.00 0.00 92 1017.0
20260831015503 22 0 0.0 0.0 0.00 0.00 0.00 91 1017.0
20260831015003 22 0 0.0 0.0 0.00 0.00 0.00 91 1016.9
20260831014503 23 0 0.0 0.0 0.00 0.00 0.00 91 1016.9
20260831014003 23 0 0.0 0.0 0.00 0.00 0.00 90 1016.7
20260831013503 23 0 0.0 0.0 0.00 0.00 0.00 90 1016.7
20260831013003 23 0 0.0 0.0 0.00 0.00 0.00 90 1016.6
20260831012503 23 0 0.0 0.0 0.00 0.00 0.00 90 1016.6
20260831012003 23 0 0.0 0.0 0.00 0.00 0.00 89 1016.6
20260831011503 23 0 0.0 0.0 0.00 0.00 0.00 88 1016.6
20260831011003 23 0 0.0 0.0 0.00 0.00 0.00 88 1016.5
20260831010503 23 0 0.0 0.0 0.00 0.00 0.00 88 1016.3
20260831010003 24 0 0.0 0.0 0.00 0.00 0.00 87 1016.3
20260831005524 24 0 0.0 0.0 0.00 0.00 0.00 87 1016.3
20260831005024 24 0 0.0 0.0 0.00 0.00 0.00 85 1016.2
20260831004524 25 0 0.0 0.0 0.00 0.00 0.00 84 1016.2
20260831004003 25 0 0.0 0.0 0.00 0.00 0.00 83 1016.1
20260831003503 25 0 0.0 0.0 0.00 0.00 0.00 82 1016.0
20260831003003 25 0 0.0 0.0 0.00 0.00 0.00 81 1016.1
20260831002503 26 0 0.0 0.0 0.00 0.00 0.00 78 1016.0
20260831002003 26 0 0.0 0.0 0.00 0.00 0.00 77 1016.0
20260831001503 26 0 0.0 0.0 0.00 0.00 0.00 75 1016.1
20260831001024 27 0 0.0 0.0 0.00 0.00 0.00 75 1016.0
20260831000503 27 0 0.0 0.0 0.00 0.00 0.00 73 1016.0
20260831000003 27 0 0.0 0.0 0.00 0.00 0.00 71 1016.0
20260830235503 28 194 0.0 1.6 0.00 0.00 0.00 69 1016.0
20260830235003 28 195 0.0 1.6 0.00 0.00 0.00 69 1015.9
20260830234503 28 188 0.0 1.6 0.00 0.00 0.00 67 1016.0
20260830234003 29 186 0.0 1.6 0.00 0.00 0.00 67 1015.9
20260830233503 30 194 0.0 3.2 0.00 0.00 0.00 64 1015.7
20260830233003 30 201 0.0 3.2 0.00 0.00 0.00 61 1015.8
20260830232503 31 203 0.0 3.2 0.00 0.00 0.00 57 1015.6
20260830232003 31 203 0.0 3.2 0.00 0.00 0.00 56 1015.6
20260830231503 32 209 0.0 4.8 0.00 0.00 0.00 56 1015.6
20260830231003 32 208 1.6 4.8 0.00 0.00 0.00 54 1015.6
20260830230503 32 210 1.6 3.2 0.00 0.00 0.00 53 1015.8
20260830230003 32 212 1.6 4.8 0.00 0.00 0.00 51 1015.8
20260830225503 32 225 1.6 4.8 0.00 0.00 0.00 52 1015.8
20260830225003 32 232 1.6 4.8 0.00 0.00 0.00 51 1015.7
20260830224503 32 240 1.6 3.2 0.00 0.00 0.00 50 1015.8
20260830224003 32 244 1.6 6.4 0.00 0.00 0.00 52 1015.8
20260830223503 32 243 1.6 6.4 0.00 0.00 0.00 53 1015.8
20260830223003 32 238 1.6 3.2 0.00 0.00 0.00 51 1015.9
20260830222524 32 238 1.6 3.2 0.00 0.00 0.00 52 1016.0
20260830222024 32 246 0.0 1.6 0.00 0.00 0.00 54 1016.0
20260830221503 32 246 0.0 1.6 0.00 0.00 0.00 59 1016.1
20260830221003 31 245 1.6 3.2 0.00 0.00 0.00 57 1016.2
20260830220503 31 255 1.6 4.8 0.00 0.00 0.00 56 1016.1
20260830220024 31 258 1.6 4.8 0.00 0.00 0.00 52 1016.1
20260830215524 32 262 1.6 11.3 0.00 0.00 0.00 52 1016.0
20260830215003 32 278 3.2 11.3 0.00 0.00 0.00 46 1016.0
20260830214503 32 289 3.2 6.4 0.00 0.00 0.00 54 1016.1
20260830214003 32 277 3.2 9.7 0.00 0.00 0.00 54 1016.1
20260830213503 33 252 4.8 9.7 0.00 0.00 0.00 48 1016.2
20260830213003 33 234 4.8 8.0 0.00 0.00 0.00 44 1016.3
20260830212524 33 250 4.8 11.3 0.00 0.00 0.00 45 1016.2
20260830212003 33 269 3.2 11.3 0.00 0.00 0.00 49 1016.3
20260830211503 33 273 3.2 8.0 0.00 0.00 0.00 50 1016.3
20260830211003 33 255 1.6 8.0 0.00 0.00 0.00 48 1016.3
20260830210503 33 235 3.2 9.7 0.00 0.00 0.00 46 1016.4
20260830210003 33 244 3.2 9.7 0.00 0.00 0.00 47 1016.5
20260830205503 33 255 3.2 9.7 0.00 0.00 0.00 51 1016.5
20260830205003 33 242 3.2 9.7 0.00 0.00 0.00 52 1016.5
20260830204503 33 247 3.2 9.7 0.00 0.00 0.00 51 1016.5
20260830204024 33 329 1.6 4.8 0.00 0.00 0.00 51 1016.5
20260830203503 33 291 1.6 8.0 0.00 0.00 0.00 49 1016.5
20260830203024 33 288 3.2 8.0 0.00 0.00 0.00 49 1016.5
20260830202503 33 277 4.8 9.7 0.00 0.00 0.00 53 1016.6
20260830202003 33 267 3.2 9.7 0.00 0.00 0.00 52 1016.7
20260830201524 32 279 3.2 6.4 0.00 0.00 0.00 53 1016.8
20260830201003 32 270 4.8 11.3 0.00 0.00 0.00 54 1016.8
20260830200503 32 251 4.8 11.3 0.00 0.00 0.00 49 1016.9
20260830200003 32 254 3.2 8.0 0.00 0.00 0.00 54 1017.0
20260830195503 32 291 3.2 8.0 0.00 0.00 0.00 59 1017.1
20260830195024 32 286 3.2 9.7 0.00 0.00 0.00 58 1017.1
20260830194503 32 271 4.8 11.3 0.00 0.00 0.00 56 1017.1
20260830194003 32 285 4.8 11.3 0.00 0.00 0.00 54 1017.2
20260830193503 32 288 4.8 12.9 0.00 0.00 0.00 59 1017.3
20260830193003 32 275 4.8 12.9 0.00 0.00 0.00 58 1017.4
20260830192503 32 289 3.2 8.0 0.00 0.00 0.00 57 1017.4
20260830192003 32 300 3.2 8.0 0.00 0.00 0.00 57 1017.6
20260830191503 31 278 3.2 9.7 0.00 0.00 0.00 59 1017.7
20260830191003 31 257 4.8 11.3 0.00 0.00 0.00 61 1017.8
20260830190503 30 247 3.2 12.9 0.00 0.00 0.00 58 1017.9
20260830190003 31 253 3.2 12.9 0.00 0.00 0.00 57 1017.9
20260830185503 31 262 6.4 14.5 0.00 0.00 0.00 57 1017.9
20260830185003 31 265 6.4 14.5 0.00 0.00 0.00 54 1018.1
20260830184524 31 262 4.8 12.9 0.00 0.00 0.00 60 1018.0
20260830184003 31 266 3.2 11.3 0.00 0.00 0.00 58 1018.1
20260830183503 31 271 4.8 12.9 0.00 0.00 0.00 60 1018.2
20260830183003 31 275 6.4 12.9 0.00 0.00 0.00 57 1018.2
20260830182503 31 279 4.8 11.3 0.00 0.00 0.00 60 1018.3
20260830182024 32 274 3.2 8.0 0.00 0.00 0.00 61 1018.3
20260830181503 31 232 3.2 9.7 0.00 0.00 0.00 57 1018.4
20260830181003 31 217 4.8 9.7 0.00 0.00 0.00 59 1018.4
20260830180503 31 239 4.8 17.7 0.00 0.00 0.00 58 1018.4
20260830180024 31 243 6.4 17.7 0.00 0.00 0.00 57 1018.5
20260830175503 31 231 4.8 14.5 0.00 0.00 0.00 62 1018.6
20260830175003 31 235 4.8 12.9 0.00 0.00 0.00 58 1018.6
20260830174503 31 238 6.4 14.5 0.00 0.00 0.00 59 1018.7
20260830174003 31 240 4.8 14.5 0.00 0.00 0.00 63 1018.7
20260830173524 30 247 4.8 12.9 0.00 0.00 0.00 62 1018.8
20260830173003 30 246 4.8 12.9 0.00 0.00 0.00 58 1018.7
20260830172503 31 243 4.8 12.9 0.00 0.00 0.00 60 1018.8
20260830172003 31 245 6.4 12.9 0.00 0.00 0.00 60 1018.9
20260830171503 31 260 6.4 17.7 0.00 0.00 0.00 60 1018.8
20260830171003 31 257 8.0 17.7 0.00 0.00 0.00 61 1018.8
20260830170503 31 242 8.0 20.9 0.00 0.00 0.00 62 1018.9
20260830170003 31 245 6.4 20.9 0.00 0.00 0.00 63 1019.0
20260830165503 31 245 4.8 14.5 0.00 0.00 0.00 63 1019.0
20260830165024 31 230 4.8 16.1 0.00 0.00 0.00 64 1019.1
20260830164503 31 239 6.4 20.9 0.00 0.00 0.00 67 1019.1
20260830164003 31 238 6.4 20.9 0.00 0.00 0.00 67 1019.0
20260830163503 31 250 4.8 12.9 0.00 0.00 0.00 66 1019.1
20260830163003 31 241 4.8 11.3 0.00 0.00 0.00 67 1019.1
20260830162503 31 211 3.2 11.3 0.00 0.00 0.00 68 1019.1
20260830162003 31 223 4.8 11.3 0.00 0.00 0.00 68 1019.2
20260830161503 30 234 4.8 11.3 0.00 0.00 0.00 69 1019.2
20260830161004 30 228 4.8 11.3 0.00 0.00 0.00 71 1019.2
20260830160503 30 225 3.2 11.3 0.00 0.00 0.00 69 1019.1
20260830160003 30 225 4.8 12.9 0.00 0.00 0.00 70 1019.2
20260830155524 30 205 4.8 12.9 0.00 0.00 0.00 71 1019.2
20260830155003 30 200 3.2 11.3 0.00 0.00 0.00 71 1019.1
20260830154503 30 225 3.2 11.3 0.00 0.00 0.00 73 1019.1
20260830154003 30 237 3.2 14.5 0.00 0.00 0.00 74 1019.1
20260830153524 30 221 3.2 14.5 0.00 0.00 0.00 72 1019.1
20260830153003 30 211 3.2 8.0 0.00 0.00 0.00 73 1019.0
20260830152503 29 219 3.2 9.7 0.00 0.00 0.00 71 1019.0
20260830152024 29 218 3.2 9.7 0.00 0.00 0.00 72 1018.9
20260830151503 29 214 3.2 8.0 0.00 0.00 0.00 72 1018.9
20260830151003 29 214 3.2 11.3 0.00 0.00 0.00 73 1019.0
20260830150503 29 208 3.2 11.3 0.00 0.00 0.00 73 1018.8
20260830150003 28 203 3.2 11.3 0.00 0.00 0.00 74 1018.7
20260830145503 28 205 3.2 11.3 0.00 0.00 0.00 75 1018.7
20260830145003 28 207 3.2 11.3 0.00 0.00 0.00 76 1018.7
20260830144503 28 212 3.2 11.3 0.00 0.00 0.00 77 1018.8
20260830144003 28 223 3.2 11.3 0.00 0.00 0.00 76 1018.8
20260830143503 27 222 3.2 9.7 0.00 0.00 0.00 79 1018.8
20260830143003 27 216 3.2 9.7 0.00 0.00 0.00 77 1018.8
20260830142503 27 212 3.2 12.9 0.00 0.00 0.00 77 1018.7
20260830142024 27 213 3.2 12.9 0.00 0.00 0.00 77 1018.6